This is the latest recevied weather packets stored in our database for station/object K5NWZ. If no packets are shown the sender has not sent any weather packets the latest 10 day(s).
| Time | Temp. | Humidity | Pressure | Rain* | Wind** | Luminosity | Snow |
|---|---|---|---|---|---|---|---|
| 1777990973 | 0.56° C | 96% | 1024.6 hPa | 0 mm | - | 44 W/m² | - |
| 1777990671 | 0.56° C | 96% | 1024.4 hPa | 0 mm | - | 45 W/m² | - |
| 1777990368 | 0.56° C | 96% | 1024.6 hPa | 0 mm | - | 39 W/m² | - |
| 1777990064 | 0.56° C | 96% | 1024.4 hPa | 0 mm | - | 31 W/m² | - |
| 1777989761 | 0.56° C | 96% | 1024.5 hPa | 0 mm | - | 28 W/m² | - |
| 1777989457 | 0.56° C | 96% | 1024.6 hPa | 0 mm | - | 28 W/m² | - |
| 1777989154 | 0.56° C | 96% | 1024.7 hPa | 0 mm | - | 29 W/m² | - |
| 1777988850 | 0.56° C | 96% | 1024.6 hPa | 0 mm | - | 30 W/m² | - |
| 1777988547 | 0.56° C | 96% | 1024.5 hPa | 0 mm | - | 28 W/m² | - |
| 1777988244 | 0° C | 96% | 1024.7 hPa | 0 mm | - | 28 W/m² | - |
| 1777987941 | 0° C | 96% | 1024.4 hPa | 0 mm | - | 23 W/m² | - |
| 1777987636 | 0° C | 96% | 1024.1 hPa | 0 mm | - | 15 W/m² | - |
| 1777987334 | 0° C | 96% | 1024.4 hPa | 0 mm | - | 11 W/m² | - |
| 1777987031 | 0° C | 96% | 1024.4 hPa | 0 mm | - | 10 W/m² | - |
| 1777986729 | 0° C | 96% | 1024.2 hPa | 0 mm | - | 9 W/m² | - |
| 1777986426 | 0° C | 95% | 1024 hPa | 0 mm | - | 6 W/m² | - |
| 1777986124 | 0° C | 95% | 1024.1 hPa | 0 mm | - | 3 W/m² | - |
| 1777985820 | 0° C | 95% | 1024.1 hPa | 0 mm | - | 2 W/m² | - |
| 1777985518 | 0° C | 95% | 1024.1 hPa | 0 mm | - | 2 W/m² | - |
| 1777985214 | 0° C | 95% | 1024 hPa | 0 mm | - | 3 W/m² | - |
| 1777984911 | 0° C | 95% | 1024 hPa | 0 mm | - | 3 W/m² | - |
| 1777984607 | 0° C | 95% | 1023.9 hPa | 0 mm | - | 2 W/m² | - |
| 1777984304 | 0° C | 95% | 1023.7 hPa | 0 mm | - | 2 W/m² | - |
| 1777984000 | 0.56° C | 95% | 1023.7 hPa | 0 mm | - | 1 W/m² | - |
| 1777983698 | 0.56° C | 95% | 1023.7 hPa | 0 mm | - | 1 W/m² | - |
* Rain latest hour (hover to see other rain measurements)
** Current wind speed in m/s (hover to see current wind gust speed)